Location: Forst
(46.9333°N, 15.4333°E)
Time: 06:31:06
(UTC+00:00)

Cosmos 1356 - Pass Details

Date: 01 December 2020
Orbit: 441 x 444 km, 81.1° (Epoch: 18 January)

Event Time Altitude Azimuth Distance (km) Brightness Sun altitude
Rises 15:57:22 0° 346° (NNW) 2,451 7.0 -7.8°
Reaches altitude 10° 15:59:27 10° 344° (NNW) 1,576 6.1 -8.1°
Maximum altitude 16:02:52 68° 261° (W) 485 3.8 -8.6°
Drops below altitude 10° 16:06:15 10° 178° (S) 1,563 6.4 -9.2°
Sets 16:08:18 0° 176° (S) 2,429 7.4 -9.5°
